Weather History for KLBX - November, 2012

Change the Weather History Date:

Thursday, November 29, 2012

  Actual Average Record
Temperature  
Mean Temperature 56 °F -  
Max Temperature 70 °F 66 °F 81 °F (2006)
Min Temperature 42 °F 49 °F 33 °F (2001)
Degree Days  
Heating Degree Days 9    
Growing Degree Days 6 (Base 50)    
Moisture  
Dew Point 51 °F    
Average Humidity 88    
Maximum Humidity 100    
Minimum Humidity 61    
Precipitation  
Precipitation 0.00 in - - ()
Sea Level Pressure  
Sea Level Pressure 30.23 in    
Wind  
Wind Speed 6 mph (NE)    
Max Wind Speed 12 mph    
Max Gust Speed -    
Visibility 6 miles    
Events Fog    
Averages and records for this station are not official NWS values.
T = Trace of Precipitation, MM = Missing Value Source: NWS Daily Summary

Daily Weather History Graph

Daily Weather History Graph

Search for Another Location

Airport or City:

Trip Planner

Search our weather history database for the weather conditions in past years. The results will help you decide how hot, cold, wet, or windy it might be!

Date:

Astronomy

Nov. 29, 2012 Rise Set
Actual Time 6:57 AM CST 5:23 PM CST
Civil Twilight 6:31 AM CST 5:49 PM CST
Nautical Twilight 6:02 AM CST 6:18 PM CST
Astronomical Twilight 5:33 AM CST 6:47 PM CST
Moon 6:27 PM CST 7:44 AM CST
Length of Visible Light 11h 17m
Length of Day
10h 26m
Full, 99% of the Moon is Illuminated
Nov 29
Full
Dec 6
Last Quarter
Dec 13
New
Dec 19
First Quarter
Dec 28
Full

Hourly Weather History & Observations

Time (CST) Temp. Windchill Dew Point Humidity Pressure Visibility Wind Dir Wind Speed Gust Speed Precip Events Conditions
12:53 AM 43.0 °F 40.3 °F 42.1 °F 97% 30.29 in 0.2 mi North 4.6 mph - N/A Fog Fog
1:03 AM 42.8 °F 39.3 °F 41.0 °F 93% 30.29 in 0.5 mi North 5.8 mph - N/A Fog Fog
1:09 AM 42.8 °F 40.1 °F 42.8 °F 100% 30.29 in 1.2 mi North 4.6 mph - N/A   Partly Cloudy
1:31 AM 44.6 °F 43.1 °F 44.6 °F 100% 30.29 in 0.8 mi North 3.5 mph - N/A   Clear
1:53 AM 43.0 °F 40.3 °F 43.0 °F 100% 30.28 in 0.8 mi NNE 4.6 mph - N/A   Clear
2:14 AM 42.8 °F 40.1 °F 42.8 °F 100% 30.28 in 1.2 mi North 4.6 mph - N/A   Clear
2:24 AM 42.8 °F 40.1 °F 42.8 °F 100% 30.27 in 3.0 mi NNE 4.6 mph - N/A   Clear
2:53 AM 43.0 °F 40.3 °F 42.1 °F 97% 30.26 in 4.0 mi NE 4.6 mph - N/A   Clear
3:43 AM 42.8 °F 41.1 °F 42.8 °F 100% 30.26 in 2.0 mi North 3.5 mph - N/A   Clear
3:53 AM 43.0 °F 40.3 °F 43.0 °F 100% 30.25 in 1.5 mi North 4.6 mph - N/A   Clear
4:24 AM 42.8 °F 38.6 °F 41.0 °F 93% 30.24 in 0.5 mi North 6.9 mph - N/A Fog Fog
4:34 AM 42.8 °F 39.3 °F 42.8 °F 100% 30.25 in 2.0 mi North 5.8 mph - N/A   Clear
4:53 AM 42.1 °F 37.7 °F 41.0 °F 96% 30.25 in 2.5 mi North 6.9 mph - N/A   Clear
5:03 AM 42.8 °F 39.3 °F 42.8 °F 100% 30.25 in 3.0 mi North 5.8 mph - N/A   Clear
5:53 AM 46.0 °F 42.5 °F 45.0 °F 96% 30.26 in 4.0 mi NNE 6.9 mph - N/A   Mostly Cloudy
6:53 AM 46.9 °F - 46.0 °F 97% 30.27 in 4.0 mi NNE 6.9 mph - N/A   Mostly Cloudy
7:53 AM 53.1 °F - 50.0 °F 89% 30.26 in 6.0 mi NE 6.9 mph - N/A   Mostly Cloudy
8:32 AM 55.4 °F - 53.6 °F 94% 30.26 in 8.0 mi NE 5.8 mph - N/A   Scattered Clouds
8:53 AM 59.0 °F - 54.0 °F 83% 30.27 in 9.0 mi NE 4.6 mph - N/A   Clear
9:53 AM 64.9 °F - 55.9 °F 73% 30.29 in 10.0 mi ENE 6.9 mph - N/A   Partly Cloudy
10:53 AM 69.1 °F - 55.9 °F 63% 30.27 in 10.0 mi ESE 10.4 mph - N/A   Clear
11:53 AM 70.0 °F - 55.9 °F 61% 30.24 in 10.0 mi ESE 8.1 mph - N/A   Scattered Clouds
12:53 PM 69.1 °F - 55.9 °F 63% 30.22 in 10.0 mi East 9.2 mph - N/A   Overcast
1:53 PM 69.1 °F - 55.9 °F 63% 30.19 in 10.0 mi East 10.4 mph - N/A   Mostly Cloudy
2:53 PM 68.0 °F - 57.0 °F 68% 30.17 in 10.0 mi East 9.2 mph - N/A   Scattered Clouds
3:53 PM 68.0 °F - 57.9 °F 70% 30.16 in 10.0 mi ESE 11.5 mph - N/A   Clear
4:51 PM 66.2 °F - 57.2 °F 73% 30.18 in 10.0 mi East 6.9 mph - N/A   Overcast
4:53 PM 66.0 °F - 57.9 °F 75% 30.18 in 10.0 mi East 5.8 mph - N/A   Overcast
5:02 PM 66.2 °F - 57.2 °F 73% 30.18 in 10.0 mi ENE 6.9 mph - N/A   Mostly Cloudy
5:53 PM 63.0 °F - 57.9 °F 84% 30.18 in 10.0 mi ENE 3.5 mph - N/A   Clear
6:53 PM 61.0 °F - 57.9 °F 90% 30.18 in 10.0 mi ENE 6.9 mph - N/A   Clear
7:53 PM 60.1 °F - 57.9 °F 93% 30.19 in 7.0 mi ENE 4.6 mph - N/A   Clear
8:53 PM 60.1 °F - 57.9 °F 93% 30.19 in 6.0 mi ENE 6.9 mph - N/A   Clear
9:53 PM 60.1 °F - 59.0 °F 96% 30.19 in 5.0 mi ENE 5.8 mph - N/A   Mostly Cloudy
10:53 PM 61.0 °F - 60.1 °F 97% 30.18 in 5.0 mi East 5.8 mph - N/A   Overcast
11:24 PM 62.6 °F - 60.8 °F 94% 30.18 in 5.0 mi ENE 5.8 mph - N/A   Overcast
11:53 PM 62.1 °F - 61.0 °F 96% 30.18 in 5.0 mi ENE 5.8 mph - N/A   Overcast